Flag for U.S.A. Weather past 2 weeks in Virginia Beach, Virginia, U.S.A.

Now
73 °F

Clear.


Feels Like: 74 °F
Forecast: 73 / 91 °F
Wind: 5 mph from Southwest

Location: Virginia Beach - Oceana

Current Time: Aug 1, 2015 at 4:18:56 AM

Latest Report: Aug 1, 2015 at 3:56 AM


Visibility: 10 mi

Pressure: 29.89 "Hg

Humidity: 76%

Dew point: 65 °F

Location of Virginia BeachLocation

Historic Weather in Virginia Beach — Graph

°F

Virginia Beach temperature yesterday

Maximum temperature yesterday: 90 °F (at 2:56 PM)
Minimum temperature yesterday: 75 °F (at 10:56 PM)
Average temperature yesterday: 83 °F

Past Weeks' High & Low Weather Summary

 TemperatureHumidityPressure
High95 °F (Jul 20, 1:56 PM)93% (Jul 18, 8:56 PM)30.09 "Hg (Jul 18, 8:56 PM)
Low66 °F (Jul 26, 3:56 AM)36% (Jul 24, 2:56 PM)29.62 "Hg (Jul 21, 3:56 PM)
Average82 °F68%29.93 "Hg
* Reported Jul 17 2:56 AM — Aug 1 2:56 AM, Virginia Beach, Weather by CustomWeather, © 2015

Note: Actual official high and low records may vary slightly from our data, if they occured in-between our weather recording intervals... More about our weather records

Advertising

Virginia Beach weather history for previous 24 hours

 ConditionsComfort  
Time TempWeatherWind HumidityBarometerVisibility
2:56 AM
Sat, Aug 1
73 °FClear.3 mph76%29.90 "Hg10 mi
1:56 AM73 °FClear.3 mph76%29.91 "Hg10 mi
12:56 AM74 °FClear.3 mph74%29.92 "Hg10 mi
11:56 PM
Fri, Jul 31
76 °FClear.6 mph72%29.94 "Hg10 mi
10:56 PM75 °FPassing clouds.6 mph74%29.93 "Hg10 mi
9:56 PM77 °FPassing clouds.No wind71%29.92 "Hg10 mi
8:56 PM78 °FScattered clouds.No wind66%29.90 "Hg10 mi
7:56 PM82 °FScattered clouds.5 mph56%29.89 "Hg10 mi
6:56 PM87 °FScattered clouds.3 mph45%29.88 "Hg10 mi
5:56 PM89 °FPassing clouds.9 mph42%29.87 "Hg10 mi
4:56 PM90 °FPassing clouds.10 mph39%29.87 "Hg10 mi
3:56 PM90 °FScattered clouds.14 mph37%29.88 "Hg10 mi
2:56 PM90 °FScattered clouds.12 mph39%29.89 "Hg10 mi
1:56 PM89 °FPassing clouds.12 mph46%29.92 "Hg10 mi
12:56 PM88 °FPassing clouds.15 mph45%29.93 "Hg10 mi
11:56 AM88 °FScattered clouds.18 mph45%29.93 "Hg10 mi
10:56 AM87 °FScattered clouds.16 mph48%29.92 "Hg10 mi
9:56 AM84 °FScattered clouds.14 mph72%29.92 "Hg10 mi
8:56 AM82 °FScattered clouds.6 mph74%29.92 "Hg10 mi
7:56 AM79 °FSunny.No wind84%29.90 "Hg10 mi
6:56 AM76 °FPassing clouds.6 mph88%29.89 "Hg8 mi
5:56 AM76 °FLight rain. Fog.5 mph88%29.89 "Hg5 mi
4:56 AM76 °FThunderstorms. Mostly cloudy.10 mph85%29.89 "Hg6 mi
Weather by CustomWeather, © 2015

See weather overviewHow to use our weather pages